Regional Weather Roundup
Issued by NWS

Home | Current Version | Previous Version | Graphics & Text | Print | Product List | Glossary On
Versions: 1 2 3 4 5 6 7 8 9 10 11 12 13 14 15 16 17 18 19 20 21 22 23 24 25 26 27 28 29 30 31 32 33 34 35 36 37 38 39 40 41 42 43 44 45 46 47 48 49 50
000
ASUS45 KCYS 231610
RWRWY

WYOMING REGIONAL WEATHER ROUNDUP
NATIONAL WEATHER SERVICE CHEYENNE WY
1000 AM MDT WED JUL 23 2014

NOTE:  "FAIR" INDICATES FEW OR NO CLOUDS BELOW 12,000 FEET
WITH NO SIGNIFICANT WEATHER AND/OR OBSTRUCTIONS TO VISIBILITY.

WYZ001-231700-
YELLOWSTONE NATIONAL PARK

CITY           SKY/WX    TMP DP  RH WIND       PRES   REMARKS
LK YELLOWSTONE   N/A     68  44  42 VRB3      30.43S
W YELLOWSTONE  NOT AVBL

$$
WYZ002>013-054>058-071-098>099-231700-
NORTHERN WYOMING

CITY           SKY/WX    TMP DP  RH WIND       PRES   REMARKS
JACKSON        SUNNY     64  43  45 S5        30.34F
CODY           SUNNY     77  46  33 SE10      30.22F
GREYBULL       SUNNY     76  50  40 SE3       30.17F
WORLAND        SUNNY     76  50  40 W5        30.18F
SHERIDAN       MOSUNNY   76  61  59 E8        30.17F
BUFFALO        MOSUNNY   76  59  55 S21       30.22F
GILLETTE       CLOUDY    75  63  64 SE17G24   30.24F
HULETT         FAIR      77  57  50 MISG      30.27
NEWCASTLE      PTSUNNY   75  52  43 SE22G28   30.29

$$
WYZ014>020-022>026-101>103-231700-
CENTRAL WYOMING

CITY           SKY/WX    TMP DP  RH WIND       PRES   REMARKS
BIG PINEY      SUNNY     71  31  22 VRB3      30.40F
PINEDALE       SUNNY     72  36  26 E6        30.40F
DUBOIS         FAIR      68  45  42 CALM      30.41F
LANDER         SUNNY     75  50  41 N6        30.30S
RIVERTON       SUNNY     73  46  38 CALM      30.29F
CASPER         SUNNY     74  57  55 CALM      30.28F
DOUGLAS        PTSUNNY   72  62  71 SE24G31   30.29F

$$
WYZ021-027>030-104>119-231700-
SOUTHERN WYOMING

CITY           SKY/WX    TMP DP  RH WIND       PRES   REMARKS
EVANSTON       MOSUNNY   78  34  20 SW9       30.39S
KEMMERER       SUNNY     75  32  20 SW5       30.40F
FORT BRIDGER   FAIR      76  27  16 CALM      30.41S
ROCK SPRINGS   SUNNY     79  25  13 CALM      30.37F
DIXON          FAIR      86  33  14 S13       30.41S
RAWLINS        SUNNY     80  37  21 VRB7      30.39F
SARATOGA       FAIR      82  41  23 SE13      30.43S
LARAMIE        SUNNY     77  51  40 S7        30.44F
CHEYENNE       CLOUDY    68  60  75 S9G17     30.43S
TORRINGTON     CLOUDY    70  61  73 SE16      30.32S
PINE BLUFFS    CLOUDY    70  63  78 SE14      30.38S

$$


USA.gov is the U.S. government's official web portal to all federal, state and local government web resources and services.